Weather History for Rolla, MO

Change the Weather History Date:

Saturday, November 24, 2012

  Actual Average Record
Temperature  
Mean Temperature 31 °F 41 °F  
Max Temperature 41 °F 51 °F 71 °F (1966)
Min Temperature 20 °F 32 °F 4 °F (1950)
Degree Days  
Heating Degree Days 34 24  
Month to date heating degree days 458 445  
Since 1 July heating degree days 923 795  
Cooling Degree Days 0 0  
Month to date cooling degree days 2 0  
Year to date cooling degree days 1693 1243  
Moisture  
Dew Point 17 °F    
Average Humidity 57    
Maximum Humidity 78    
Minimum Humidity 39    
Precipitation  
Precipitation 0.00 in 0.14 in 2.64 in (2010)
Month to date precipitation 1.26 3.10  
Year to date precipitation 30.92 40.20  
Sea Level Pressure  
Sea Level Pressure 30.23 in    
Wind  
Wind Speed 8 mph (SW)    
Max Wind Speed 18 mph    
Max Gust Speed -    
Visibility 10 miles    
Events      
T = Trace of Precipitation, MM = Missing Value Source: NWS Daily Summary

Daily Weather History Graph

Daily Weather History Graph

Search for Another Location

Airport:

Trip Planner

Search our weather history database for the weather conditions in past years. The results will help you decide how hot, cold, wet, or windy it might be!

Date:

Astronomy

Nov. 24, 2012 Rise Set
Actual Time 6:58 AM CST 4:49 PM CST
Civil Twilight 6:29 AM CST 5:18 PM CST
Nautical Twilight 5:57 AM CST 5:50 PM CST
Astronomical Twilight 5:25 AM CST 6:22 PM CST
Moon 2:32 PM CST (11/24) 3:17 AM CST (11/24)
Length of Visible Light 10h 48m
Length of Day
9h 51m
Waxing Gibbous, 87% of the Moon is Illuminated
Nov 24
Waxing Gibbous
Nov 28
Full
Dec 6
Last Quarter
Dec 13
New
Dec 19
First Quarter

Hourly Weather History & Observations

Time (CST) Temp. Windchill Dew Point Humidity Pressure Visibility Wind Dir Wind Speed Gust Speed Precip Events Conditions
12:53 AM 26.1 °F 16.8 °F 15.1 °F 63% 30.37 in 10.0 mi NW 9.2 mph - N/A   Clear
1:53 AM 19.9 °F 13.4 °F 14.0 °F 78% 30.36 in 10.0 mi WSW 4.6 mph - N/A   Clear
2:53 AM 21.9 °F 14.5 °F 15.1 °F 75% 30.37 in 10.0 mi WNW 5.8 mph - N/A   Clear
3:53 AM 21.9 °F 15.7 °F 15.1 °F 75% 30.35 in 10.0 mi West 4.6 mph - N/A   Clear
4:53 AM 21.9 °F 14.5 °F 15.1 °F 75% 30.35 in 10.0 mi WNW 5.8 mph - N/A   Clear
5:53 AM 21.0 °F 13.4 °F 15.1 °F 78% 30.36 in 10.0 mi West 5.8 mph - N/A   Clear
6:53 AM 19.9 °F 13.4 °F 14.0 °F 78% 30.36 in 10.0 mi West 4.6 mph - N/A   Clear
7:53 AM 23.0 °F 14.7 °F 16.0 °F 74% 30.36 in 10.0 mi WNW 6.9 mph - N/A   Clear
8:53 AM 26.1 °F 20.5 °F 16.0 °F 66% 30.37 in 10.0 mi West 4.6 mph - N/A   Clear
9:53 AM 28.9 °F 25.2 °F 16.0 °F 58% 30.36 in 10.0 mi WSW 3.5 mph - N/A   Clear
10:53 AM 30.9 °F 24.3 °F 16.0 °F 54% 30.34 in 10.0 mi NNW 6.9 mph - N/A   Clear
11:53 AM 34.0 °F - 17.1 °F 50% 30.29 in 10.0 mi Calm Calm - N/A   Clear
12:53 PM 36.0 °F 32.1 °F 16.0 °F 44% 30.25 in 10.0 mi Variable 4.6 mph - N/A   Clear
1:53 PM 39.0 °F 34.8 °F 16.0 °F 39% 30.22 in 10.0 mi SW 5.8 mph - N/A   Clear
2:53 PM 39.0 °F 34.0 °F 16.0 °F 39% 30.19 in 10.0 mi SSW 6.9 mph - N/A   Clear
3:53 PM 39.9 °F 34.5 °F 18.0 °F 41% 30.17 in 10.0 mi SSE 8.1 mph - N/A   Clear
4:53 PM 37.0 °F 31.6 °F 19.0 °F 48% 30.13 in 10.0 mi SSE 6.9 mph - N/A   Clear
5:53 PM 35.1 °F 28.6 °F 19.0 °F 52% 30.11 in 10.0 mi SSE 8.1 mph - N/A   Clear
6:53 PM 37.0 °F 28.9 °F 19.0 °F 48% 30.08 in 10.0 mi South 12.7 mph - N/A   Clear
7:53 PM 37.0 °F 28.5 °F 19.0 °F 48% 30.06 in 10.0 mi South 13.8 mph - N/A   Clear
8:53 PM 37.9 °F 28.5 °F 18.0 °F 45% 30.03 in 10.0 mi South 17.3 mph - N/A   Clear
9:53 PM 37.0 °F 28.1 °F 18.0 °F 46% 30.03 in 10.0 mi South 15.0 mph - N/A   Clear
10:53 PM 37.0 °F 28.5 °F 18.0 °F 46% 30.02 in 10.0 mi South 13.8 mph - N/A   Clear
11:53 PM 37.0 °F 28.9 °F 18.0 °F 46% 30.01 in 10.0 mi SSW 12.7 mph - N/A   Clear